Regional Weather Roundup
Issued by NWS

Home | Current Version | Previous Version | Graphics & Text | Print | Product List | Glossary On
Versions: 1 2 3 4 5 6 7 8 9 10 11 12 13 14 15 16 17 18 19 20 21 22 23 24 25 26 27 28 29 30 31 32 33 34 35 36 37 38 39 40 41 42 43 44 45 46 47 48 49 50
000
ASUS43 KFSD 241610
RWRSD

WEATHER ROUNDUP FOR SOUTH DAKOTA
NATIONAL WEATHER SERVICE SIOUX FALLS SD
1000 AM CST MON NOV 24 2014

NOTE: "FAIR" INDICATES FEW OR NO CLOUDS BELOW 12,000 FEET WITH NO
SIGNIFICANT WEATHER AND/OR OBSTRUCTIONS TO VISIBILITY.


SDZ001>005-009-010-012>017-241700-
NORTHWEST AND NORTH CENTRAL SOUTH DAKOTA

CITY           SKY/WX    TMP DP  RH WIND       PRES   REMARKS
BUFFALO          N/A     25  18  74 NW10      29.79R WCI  15
FAITH            N/A     19  14  81 N16       29.85R WCI   4
MOBRIDGE       SUNNY     19  12  74 NW21G30   29.82R WCI   3
$$

SDZ012>016-024>037-041>051-057-063-072>074-241700-
SOUTHWEST AND SOUTH CENTRAL SOUTH DAKOTA

CITY           SKY/WX    TMP DP  RH WIND       PRES   REMARKS
RAPID CTY ARPT CLOUDY    27  21  78 E3        29.85R
PIERRE         SUNNY     22  13  68 N22G28    29.85R WCI   6
CUSTER         CLOUDY    29  19  66 NW5       29.78R WCI  24
ELLSWORTH AFB  LGT SNOW  25  21  86 NE6       29.85  VSB 1   WCI  18
PHILIP         SUNNY    N/A N/A N/A NW14      29.88R
PINE RIDGE     MOSUNNY   31  22  69 NW8       29.84R WCI  23
SPEARFISH      LGT SNOW  32  30  93 NW16G23   29.84R WCI  21
WINNER         FAIR      24  14  65 NW22G31   29.83R WCI   9
$$

SDZ004>011-016>023-039-040-241700-
NORTHEAST SOUTH DAKOTA

CITY           SKY/WX    TMP DP  RH WIND       PRES   REMARKS
ABERDEEN       SUNNY     18   8  65 N20G31    29.78R WCI   2
WATERTOWN      LGT SNOW  13   7  77 NW29G36   29.65R WCI  -8
SISSETON         N/A     12   6  77 N30G37    29.69R WCI -10
$$

SDZ017-020-022-023-036>040-048>070-241700-
SOUTHEAST SOUTH DAKOTA

CITY           SKY/WX    TMP DP  RH WIND       PRES   REMARKS
SIOUX FALLS    FLURRIES  20  13  74 NW26G33   29.66R WCI   2
HURON          MOSUNNY   18   9  68 NW22G38   29.77R WCI   1
CHAMBERLAIN    PTSUNNY   22  15  73 NW22G29   29.81R WCI   6
MITCHELL       CLOUDY    22  14  71 N22G31    29.77R WCI   6
YANKTON        CLOUDY   N/A N/A N/A NW25G32   29.73R
$$

ABBREVIATIONS USED IN REMARKS
   TC - TEMPERATURE IN CELSIUS
  WCI - WIND CHILL INDEX
   HX - HEAT INDEX
  VSB - VISIBILITY



USA.gov is the U.S. government's official web portal to all federal, state and local government web resources and services.